Weather History for Ahmedabad, India

Change the Weather History Date:

Thursday, July 4, 2013

  Actual Average Record
Temperature  
Mean Temperature 76 °F -  
Max Temperature 80 °F 88 °F 102 °F (2014)
Min Temperature 73 °F 77 °F 42 °F (1996)
Cooling Degree Days 12    
Growing Degree Days 26 (Base 50)    
Moisture  
Dew Point 77 °F    
Average Humidity 98    
Maximum Humidity 100    
Minimum Humidity 91    
Precipitation  
Precipitation 0.00 in 0.33 in - ()
Sea Level Pressure  
Sea Level Pressure 29.51 in    
Wind  
Wind Speed 7 mph ()    
Max Wind Speed 14 mph    
Max Gust Speed 23 mph    
Visibility 1.5 miles    
Events Rain , Thunderstorm    
Averages and records for this station are not official NWS values.
T = Trace of Precipitation, MM = Missing Value Source: Averaged Metar Reports

Daily Weather History Graph

Daily Weather History Graph

Search for Another Location

Airport:

Trip Planner

Search our weather history database for the weather conditions in past years. The results will help you decide how hot, cold, wet, or windy it might be!

Date:

Astronomy

Jul. 04, 2013 Rise Set
Actual Time 5:58 AM IST 7:29 PM IST
Civil Twilight 5:33 AM IST 7:54 PM IST
Nautical Twilight 5:03 AM IST 8:24 PM IST
Astronomical Twilight 4:31 AM IST 8:55 PM IST
Moon 2:46 AM IST (7/4) 4:17 PM IST (7/4)
Length of Visible Light 14h 21m
Length of Day
13h 30m
Waning Crescent, 14% of the Moon is Illuminated
Jul 4
Waning Crescent
Jul 8
New
Jul 16
First Quarter
Jul 22
Full
Jul 29
Last Quarter

Hourly Weather History & Observations

Time (IST) Temp. Heat Index Dew Point Humidity Pressure Visibility Wind Dir Wind Speed Gust Speed Precip Events Conditions
12:10 AM 77.0 °F - 77.0 °F 100% 29.56 in 1.6 mi WNW 9.2 mph 20.7 mph N/A Rain , Thunderstorm Thunderstorms and Rain
1:10 AM 77.0 °F - 77.0 °F 100% 29.50 in 1.9 mi West 9.2 mph 20.7 mph N/A Rain , Thunderstorm Thunderstorms and Rain
1:40 AM 77.0 °F - 75.2 °F 94% 29.50 in 2.5 mi West 10.4 mph - N/A Rain Light Rain
2:10 AM 77.0 °F - 75.2 °F 94% 29.47 in 2.5 mi West 9.2 mph - N/A Rain Light Rain
2:30 AM 78 °F - 77 °F 94% 29.48 in 1 mi SW 5.8 mph - - Rain Light Rain
2:40 AM 77.0 °F - 75.2 °F 94% 29.44 in 2.2 mi West 9.2 mph - N/A Rain Light Rain
3:40 AM 77.0 °F - 77.0 °F 100% 29.44 in 1.9 mi West 6.9 mph - N/A Rain Light Rain
4:10 AM 77.0 °F - 77.0 °F 100% 29.44 in 1.9 mi West 5.8 mph - N/A Rain Light Rain
4:40 AM 77.0 °F - 77.0 °F 100% 29.44 in 1.9 mi Variable 3.5 mph - N/A Rain Light Rain
5:10 AM 78.8 °F - 78.8 °F 100% 29.47 in 1.9 mi Variable 2.3 mph - N/A Rain Light Rain
5:30 AM 80 °F - 78 °F 93% 29.46 in 1 mi SW 3.5 mph - - Rain Light Rain
5:40 AM 78.8 °F - 78.8 °F 100% 29.44 in 1.9 mi WSW 5.8 mph - N/A Rain Light Rain
6:10 AM 80.6 °F 88.1 °F 78.8 °F 94% 29.47 in 1.9 mi SW 4.6 mph - N/A Rain Light Rain
6:40 AM 80.6 °F 88.1 °F 78.8 °F 94% 29.47 in 1.9 mi WSW 4.6 mph - N/A Rain Light Rain
7:10 AM 80.6 °F 88.1 °F 78.8 °F 94% 29.50 in 1.9 mi West 6.9 mph - N/A Rain Light Rain
8:10 AM 80.6 °F 89.3 °F 80.6 °F 100% 29.53 in 1.6 mi WSW 9.2 mph - N/A Rain Light Rain
8:30 AM 80 °F - 78 °F 93% 29.51 in 1 mi WSW 3.5 mph - - Rain Light Rain
8:40 AM 80.6 °F 89.3 °F 80.6 °F 100% 29.53 in 1.6 mi WSW 9.2 mph - N/A Rain Light Rain
9:10 AM 80.6 °F 89.3 °F 80.6 °F 100% 29.50 in 1.6 mi WSW 11.5 mph - N/A Rain Light Rain
9:40 AM 80.6 °F 88.1 °F 78.8 °F 94% 29.53 in 1.6 mi West 10.4 mph - N/A Rain Light Rain
10:40 AM 78.8 °F - 78.8 °F 100% 29.53 in 1.2 mi WSW 9.2 mph - N/A Rain Rain
11:10 AM 78.8 °F - 78.8 °F 100% 29.53 in 1.2 mi West 11.5 mph - N/A Rain Rain
11:30 AM 80 °F - 78 °F 93% 29.51 in 1 mi West 4.6 mph - - Rain Rain
11:40 AM 78.8 °F - 78.8 °F 100% 29.53 in 1.2 mi West 9.2 mph 20.7 mph N/A Rain Rain
12:10 PM 78.8 °F - 78.8 °F 100% 29.53 in 1.2 mi West 8.1 mph - N/A Rain Rain
12:40 PM 78.8 °F - 78.8 °F 100% 29.50 in 1.6 mi West 9.2 mph 20.7 mph N/A Rain Light Rain
2:30 PM 78 °F - 77 °F 94% 29.55 in 1 mi West 4.6 mph - - Rain Rain
2:40 PM 77.0 °F - 77.0 °F 100% 29.53 in 0.6 mi West 11.5 mph - N/A Rain Heavy Rain
3:40 PM 75.2 °F - 75.2 °F 100% 29.50 in 0.6 mi WSW 11.5 mph 23.0 mph N/A Rain Heavy Rain
4:10 PM 75.2 °F - 75.2 °F 100% 29.50 in 1.2 mi WSW 11.5 mph 23.0 mph N/A Rain Light Rain
4:40 PM 75.2 °F - 75.2 °F 100% 29.50 in 1.2 mi WSW 9.2 mph - N/A Rain Light Rain
5:30 PM 76 °F - 74 °F 91% 29.49 in 1 mi SW 6.9 mph - - Rain Rain
5:40 PM 75.2 °F - 75.2 °F 100% 29.50 in 1.9 mi WSW 11.5 mph 23.0 mph N/A Rain Light Rain
6:10 PM 75.2 °F - 75.2 °F 100% 29.50 in 1.2 mi WSW 12.7 mph - N/A Rain Light Rain
6:40 PM 75.2 °F - 75.2 °F 100% 29.50 in 1.6 mi West 13.8 mph - N/A Rain Light Rain
7:10 PM 75.2 °F - 75.2 °F 100% 29.53 in 1.6 mi West 11.5 mph - N/A Rain Light Rain
7:40 PM 75.2 °F - 73.4 °F 94% 29.53 in 1.6 mi West 11.5 mph - N/A Rain Light Rain
8:10 PM 73.4 °F - 73.4 °F 100% 29.56 in 1.6 mi West 11.5 mph - N/A Rain Light Rain
8:30 PM 74 °F - 73 °F 96% 29.55 in 1 mi SW 3.5 mph - - Rain Rain
8:40 PM 73.4 °F - 73.4 °F 100% 29.56 in 1.2 mi WSW 10.4 mph - N/A Rain Rain
9:10 PM 73.4 °F - 73.4 °F 100% 29.53 in 1.6 mi WSW 11.5 mph - N/A Rain Light Rain
9:40 PM 73.4 °F - 73.4 °F 100% 29.56 in 1.6 mi WSW 10.4 mph - N/A Rain Light Rain
10:10 PM 75.2 °F - 73.4 °F 94% 29.56 in 1.6 mi West 6.9 mph - N/A Rain Light Rain
10:40 PM 75.2 °F - 75.2 °F 100% 29.56 in 1.6 mi WSW 9.2 mph - N/A Rain Light Rain
11:10 PM 75.2 °F - 75.2 °F 100% 29.56 in 1.6 mi WSW 10.4 mph - N/A Rain Light Rain
11:30 PM 76 °F - 74 °F 91% 29.56 in 1 mi Calm Calm - - Rain Light Rain
11:40 PM 75.2 °F - 73.4 °F 94% 29.56 in 1.6 mi West 8.1 mph - N/A Rain Light Rain